• In Uzbekistan
  • List of Countries
  • For 7 days
  • Water Temperature
  • Weather Map
  • Weather Widgets
  • user-avatar
    Login

    Hourly Weather Aberdeen

    Today, 6 June, Saturday

    Time Temperature Precipitation Wind Pressure Humidity
    00:00 +7°C° 0.2 mm 5 mps 731 mmHg 92%
    01:00 +6°C° 0 mm 5 mps 732 mmHg 91%
    02:00 +5°C° 0 mm 6 mps 732 mmHg 91%
    03:00 +5°C° 0 mm 6 mps 732 mmHg 91%
    04:00 +5°C° 0 mm 6 mps 733 mmHg 90%
    05:00 +6°C° 0 mm 7 mps 734 mmHg 88%
    06:00 +8°C° 0 mm 7 mps 735 mmHg 86%
    07:00 +9°C° 0.1 mm 7 mps 736 mmHg 81%
    08:00 +10°C° 0.1 mm 8 mps 737 mmHg 75%
    09:00 +11°C° 0.1 mm 8 mps 738 mmHg 70%
    10:00 +12°C° 0.1 mm 8 mps 738 mmHg 67%
    11:00 +14°C° 0.1 mm 7 mps 739 mmHg 65%
    12:00 +15°C° 0.1 mm 6 mps 740 mmHg 62%
    13:00 +15°C° 0 mm 5 mps 740 mmHg 60%
    14:00 +15°C° 0 mm 5 mps 740 mmHg 59%
    15:00 +15°C° 0 mm 4 mps 741 mmHg 57%
    16:00 +14°C° 0.6 mm 3 mps 741 mmHg 68%
    17:00 +13°C° 0.6 mm 2 mps 741 mmHg 79%
    18:00 +12°C° 0.6 mm 1 mps 741 mmHg 90%
    19:00 +10°C° 0.3 mm 2 mps 742 mmHg 91%
    20:00 +10°C° 0.3 mm 2 mps 743 mmHg 92%
    21:00 +10°C° 0.3 mm 2 mps 743 mmHg 93%
    22:00 +9°C° 0.2 mm 3 mps 743 mmHg 93%
    23:00 +8°C° 0.2 mm 4 mps 743 mmHg 92%

    Tomorrow, 7 June, Sunday

    Time Temperature Precipitation Wind Pressure Humidity
    00:00 +8°C° 0.2 mm 4 mps 743 mmHg 91%
    01:00 +8°C° 0.2 mm 4 mps 744 mmHg 91%
    02:00 +8°C° 0.2 mm 4 mps 744 mmHg 90%
    03:00 +8°C° 0.2 mm 4 mps 744 mmHg 90%
    04:00 +8°C° 0.1 mm 4 mps 745 mmHg 88%
    05:00 +9°C° 0.1 mm 5 mps 745 mmHg 87%
    06:00 +9°C° 0.1 mm 5 mps 746 mmHg 86%
    07:00 +10°C° 0 mm 6 mps 747 mmHg 81%
    08:00 +11°C° 0 mm 6 mps 747 mmHg 75%
    09:00 +12°C° 0 mm 7 mps 748 mmHg 70%
    10:00 +12°C° 0 mm 7 mps 749 mmHg 70%
    11:00 +12°C° 0 mm 7 mps 750 mmHg 69%
    12:00 +13°C° 0 mm 6 mps 750 mmHg 68%
    13:00 +13°C° 0 mm 6 mps 751 mmHg 68%
    14:00 +13°C° 0 mm 6 mps 751 mmHg 67%
    15:00 +13°C° 0 mm 6 mps 752 mmHg 66%
    16:00 +11°C° 0 mm 6 mps 752 mmHg 68%
    17:00 +10°C° 0 mm 6 mps 752 mmHg 69%
    18:00 +10°C° 0 mm 6 mps 753 mmHg 70%
    19:00 +8°C° 0 mm 5 mps 753 mmHg 72%
    20:00 +7°C° 0 mm 5 mps 754 mmHg 73%
    21:00 +5°C° 0 mm 4 mps 755 mmHg 75%
    22:00 +4°C° 0 mm 4 mps 755 mmHg 78%
    23:00 +4°C° 0 mm 3 mps 755 mmHg 81%

    Day after tomorrow, 8 June, Monday

    Time Temperature Precipitation Wind Pressure Humidity
    00:00 +3°C° 0 mm 3 mps 755 mmHg 84%
    01:00 +3°C° 0 mm 3 mps 755 mmHg 84%
    02:00 +2°C° 0 mm 3 mps 756 mmHg 85%
    03:00 +3°C° 0 mm 2 mps 756 mmHg 86%
    04:00 +3°C° 0 mm 3 mps 756 mmHg 81%
    05:00 +4°C° 0 mm 3 mps 756 mmHg 77%
    06:00 +5°C° 0 mm 3 mps 756 mmHg 73%
    07:00 +7°C° 0 mm 3 mps 757 mmHg 69%
    08:00 +9°C° 0 mm 2 mps 757 mmHg 64%
    09:00 +10°C° 0 mm 2 mps 757 mmHg 60%
    10:00 +10°C° 0 mm 2 mps 757 mmHg 59%
    11:00 +12°C° 0 mm 2 mps 757 mmHg 57%
    12:00 +13°C° 0 mm 2 mps 757 mmHg 56%
    13:00 +13°C° 0 mm 2 mps 757 mmHg 59%
    14:00 +12°C° 0 mm 3 mps 757 mmHg 62%
    15:00 +11°C° 0 mm 3 mps 757 mmHg 66%
    16:00 +11°C° 0 mm 3 mps 757 mmHg 68%
    17:00 +10°C° 0 mm 3 mps 757 mmHg 71%
    18:00 +10°C° 0 mm 3 mps 757 mmHg 74%
    19:00 +9°C° 0 mm 2 mps 757 mmHg 77%
    20:00 +8°C° 0 mm 2 mps 758 mmHg 79%
    21:00 +7°C° 0 mm 2 mps 758 mmHg 82%
    22:00 +8°C° 0 mm 1 mps 758 mmHg 83%
    23:00 +7°C° 0 mm 1 mps 758 mmHg 85%

    9 June, Tuesday

    Time Temperature Precipitation Wind Pressure Humidity
    00:00 +7°C° 0 mm 1 mps 758 mmHg 86%
    01:00 +7°C° 0 mm 1 mps 758 mmHg 85%
    02:00 +7°C° 0 mm 1 mps 757 mmHg 84%
    03:00 +7°C° 0 mm 1 mps 757 mmHg 84%
    04:00 +8°C° 0 mm 1 mps 757 mmHg 82%
    05:00 +8°C° 0 mm 1 mps 757 mmHg 81%
    06:00 +9°C° 0 mm 1 mps 757 mmHg 80%
    07:00 +10°C° 0 mm 1 mps 757 mmHg 77%
    08:00 +12°C° 0 mm 1 mps 757 mmHg 74%
    09:00 +13°C° 0 mm 2 mps 757 mmHg 70%
    10:00 +14°C° 0 mm 2 mps 757 mmHg 69%
    11:00 +15°C° 0 mm 2 mps 757 mmHg 67%
    12:00 +16°C° 0 mm 3 mps 757 mmHg 65%
    13:00 +16°C° 0 mm 3 mps 757 mmHg 67%
    14:00 +14°C° 0 mm 3 mps 757 mmHg 69%
    15:00 +14°C° 0 mm 4 mps 757 mmHg 71%
    16:00 +14°C° 0 mm 3 mps 757 mmHg 73%
    17:00 +14°C° 0 mm 3 mps 757 mmHg 75%
    18:00 +14°C° 0 mm 3 mps 757 mmHg 77%
    19:00 +14°C° 0 mm 2 mps 757 mmHg 80%
    20:00 +13°C° 0 mm 2 mps 757 mmHg 84%
    21:00 +10°C° 0 mm 2 mps 758 mmHg 87%
    22:00 +10°C° 0 mm 2 mps 758 mmHg 88%
    23:00 +9°C° 0 mm 2 mps 757 mmHg 89%

    10 June, Wednesday

    Time Temperature Precipitation Wind Pressure Humidity
    00:00 +8°C° 0 mm 2 mps 757 mmHg 90%
    01:00 +8°C° 0 mm 2 mps 757 mmHg 91%
    02:00 +8°C° 0 mm 2 mps 757 mmHg 91%
    03:00 +7°C° 0 mm 2 mps 757 mmHg 91%
    04:00 +8°C° 0 mm 2 mps 757 mmHg 88%
    05:00 +9°C° 0 mm 2 mps 758 mmHg 85%
    06:00 +10°C° 0 mm 2 mps 758 mmHg 82%
    07:00 +12°C° 0 mm 2 mps 758 mmHg 79%
    08:00 +12°C° 0 mm 2 mps 758 mmHg 75%
    09:00 +13°C° 0 mm 2 mps 758 mmHg 72%
    10:00 +14°C° 0 mm 2 mps 758 mmHg 69%
    11:00 +16°C° 0 mm 2 mps 758 mmHg 66%
    12:00 +17°C° 0 mm 3 mps 758 mmHg 63%
    13:00 +18°C° 0.1 mm 3 mps 758 mmHg 65%
    14:00 +18°C° 0.1 mm 3 mps 758 mmHg 67%
    15:00 +19°C° 0.1 mm 4 mps 758 mmHg 69%
    16:00 +19°C° 0.1 mm 3 mps 758 mmHg 71%
    17:00 +18°C° 0.1 mm 3 mps 758 mmHg 74%
    18:00 +18°C° 0.1 mm 3 mps 758 mmHg 76%
    19:00 +16°C° 0 mm 3 mps 759 mmHg 78%
    20:00 +14°C° 0 mm 3 mps 759 mmHg 79%
    21:00 +13°C° 0 mm 3 mps 759 mmHg 80%
    22:00 +13°C° 0 mm 2 mps 759 mmHg 81%
    23:00 +13°C° 0 mm 2 mps 759 mmHg 82%

    11 June, Thursday

    Time Temperature Precipitation Wind Pressure Humidity
    00:00 +13°C° 0 mm 1 mps 759 mmHg 84%
    01:00 +12°C° 0 mm 1 mps 759 mmHg 84%
    02:00 +12°C° 0 mm 1 mps 759 mmHg 84%
    03:00 +12°C° 0 mm 1 mps 758 mmHg 84%
    04:00 +13°C° 0 mm 1 mps 758 mmHg 84%
    05:00 +13°C° 0 mm 1 mps 758 mmHg 84%
    06:00 +13°C° 0 mm 1 mps 758 mmHg 84%
    07:00 +14°C° 0 mm 1 mps 758 mmHg 82%
    08:00 +15°C° 0 mm 1 mps 758 mmHg 79%
    09:00 +18°C° 0 mm 1 mps 758 mmHg 76%
    10:00 +18°C° 0 mm 1 mps 758 mmHg 77%
    11:00 +17°C° 0 mm 2 mps 758 mmHg 78%
    12:00 +18°C° 0 mm 2 mps 758 mmHg 78%
    13:00 +17°C° 0 mm 2 mps 758 mmHg 80%
    14:00 +16°C° 0 mm 2 mps 758 mmHg 82%
    15:00 +16°C° 0 mm 2 mps 758 mmHg 83%
    16:00 +16°C° 0 mm 2 mps 758 mmHg 84%
    17:00 +15°C° 0 mm 2 mps 758 mmHg 85%
    18:00 +15°C° 0 mm 2 mps 758 mmHg 86%
    19:00 +14°C° 0 mm 1 mps 758 mmHg 88%
    20:00 +14°C° 0 mm 1 mps 758 mmHg 90%
    21:00 +13°C° 0 mm 1 mps 758 mmHg 92%
    22:00 +12°C° 0 mm 0 mps 758 mmHg 92%
    23:00 +12°C° 0 mm 0 mps 757 mmHg 92%
    Show more